Falfurrias, TX

11:31 AM CDT on October 23, 2019 (GMT -0500)
Falfurrias

Weather History for KBKS - May, 2019

Change the Weather History Date:

Friday, May 3, 2019

  Actual Average (WUND) Record (WUND)
Temperature  
Mean Temperature 76 °F -  
Max Temperature 86 °F - - (-1)
Min Temperature 67 °F - - (-1)
Cooling Degree Days 12    
Growing Degree Days 26 (Base 50)    
Moisture  
Dew Point 71 °F    
Average Humidity 78    
Maximum Humidity 91    
Minimum Humidity 59    
Precipitation  
Precipitation 0.37 in - - ()
Sea Level Pressure  
Sea Level Pressure 29.82 in    
Wind  
Wind Speed 9 mph (ESE)    
Max Wind Speed 18 mph    
Max Gust Speed 25 mph    
Visibility 9 miles    
Events      
Averages and records for this station are not official NWS values.
T = Trace of Precipitation, MM = Missing Value Source: NWS Daily Summary

Daily Weather History Graph

Daily Weather History Graph

Search for Another Location

Airport or City:

Astronomy

May. 03, 2019 Rise Set
Actual Time 6:52 AM CDT 8:06 PM CDT
Civil Twilight 6:27 AM CDT 8:31 PM CDT
Nautical Twilight 5:58 AM CDT 9:00 PM CDT
Astronomical Twilight 5:28 AM CDT 9:31 PM CDT
Moon 6:18 AM CDT (5/3) 7:07 PM CDT (5/3)
Length of Visible Light 14h 03m
Length of Day
13h 14m
Waning Crescent, 2% of the Moon is Illuminated
May 3
Waning Crescent
May 4
New
May 11
First Quarter
May 18
Full
May 26
Last Quarter

Hourly Weather History & Observations

Time (CDT) Temp. Heat Index Dew Point Humidity Pressure Visibility Wind Dir Wind Speed Gust Speed Precip Events Conditions
12:15 AM 77.0 °F - 72.0 °F 84% 29.90 in 7.0 mi East 6.9 mph - N/A   Mostly Cloudy
12:35 AM 77.0 °F - 72.1 °F 85% 29.89 in 7.0 mi East 8.1 mph - N/A   Mostly Cloudy
12:55 AM 77.0 °F - 72.5 °F 86% 29.88 in 7.0 mi East 8.1 mph - N/A   Overcast
1:15 AM 77.0 °F - 72.5 °F 86% 29.88 in 7.0 mi East 6.9 mph - N/A   Overcast
1:35 AM 77.0 °F - 72.5 °F 86% 29.87 in 7.0 mi East 5.8 mph - N/A   Overcast
1:55 AM 76.6 °F - 72.5 °F 87% 29.86 in 7.0 mi ESE 8.1 mph - N/A   Mostly Cloudy
2:15 AM 76.3 °F - 72.5 °F 88% 29.85 in 7.0 mi East 9.2 mph - N/A   Scattered Clouds
2:35 AM 76.3 °F - 72.5 °F 88% 29.83 in 7.0 mi ESE 8.1 mph - N/A   Scattered Clouds
2:55 AM 76.5 °F - 72.5 °F 87% 29.82 in 7.0 mi ESE 8.1 mph - N/A   Clear
3:15 AM 76.6 °F - 72.3 °F 86% 29.80 in 7.0 mi ESE 9.2 mph - N/A   Scattered Clouds
3:35 AM 76.8 °F - 72.3 °F 86% 29.80 in 7.0 mi ESE 10.4 mph - N/A   Scattered Clouds
3:55 AM 76.5 °F - 72.1 °F 86% 29.80 in 7.0 mi ESE 9.2 mph - N/A   Mostly Cloudy
4:15 AM 76.5 °F - 72.1 °F 86% 29.80 in 7.0 mi ESE 8.1 mph - N/A   Overcast
4:35 AM 76.6 °F - 72.1 °F 86% 29.79 in 7.0 mi ESE 10.4 mph - N/A   Scattered Clouds
4:55 AM 76.6 °F - 72.1 °F 86% 29.80 in 7.0 mi ESE 10.4 mph - N/A   Mostly Cloudy
5:15 AM 76.6 °F - 72.1 °F 86% 29.80 in 7.0 mi East 9.2 mph - N/A   Mostly Cloudy
5:35 AM 76.5 °F - 72.0 °F 86% 29.78 in 7.0 mi ESE 10.4 mph 16.1 mph N/A   Scattered Clouds
5:55 AM 76.6 °F - 72.0 °F 85% 29.78 in 7.0 mi ESE 6.9 mph - N/A   Mostly Cloudy
6:15 AM 77.0 °F - 72.0 °F 84% 29.80 in 7.0 mi ESE 6.9 mph - N/A   Overcast
6:35 AM 77.0 °F - 72.0 °F 84% 29.79 in 7.0 mi East 11.5 mph - N/A   Overcast
6:55 AM 77.0 °F - 71.8 °F 84% 29.82 in 7.0 mi ESE 4.6 mph - N/A   Overcast
7:15 AM 77.0 °F - 71.6 °F 83% 29.83 in 7.0 mi East 8.1 mph 17.3 mph N/A   Overcast
7:35 AM 77.0 °F - 71.8 °F 84% 29.88 in 7.0 mi ENE 8.1 mph - N/A   Overcast
7:55 AM 76.1 °F - 72.0 °F 87% 29.91 in 7.0 mi ESE 3.5 mph - N/A   Overcast
8:15 AM 75.9 °F - 72.1 °F 88% 29.94 in 7.0 mi NW 8.1 mph - N/A   Overcast
8:35 AM 68.9 °F - 64.2 °F 85% 29.96 in 5.0 mi North 6.9 mph 10.4 mph 0.09 in   Overcast
8:55 AM 68.9 °F - 64.4 °F 86% 29.96 in 3.0 mi NW 3.5 mph - 0.16 in   Overcast
9:35 AM 67.6 °F - 64.9 °F 91% 29.87 in 7.0 mi NE 16.1 mph 20.7 mph 0.20 in   Overcast
9:55 AM 68.2 °F - 64.9 °F 89% 29.87 in 10.0 mi ENE 5.8 mph 24.2 mph 0.21 in   Scattered Clouds
10:15 AM 68.9 °F - 65.5 °F 89% 29.88 in 10.0 mi SE 9.2 mph - N/A   Clear
10:35 AM 69.6 °F - 66.0 °F 88% 29.88 in 10.0 mi SE 10.4 mph - N/A   Scattered Clouds
10:55 AM 70.3 °F - 67.1 °F 89% 29.88 in 10.0 mi SE 6.9 mph - N/A   Mostly Cloudy
11:15 AM 73.0 °F - 68.4 °F 85% 29.87 in 10.0 mi ESE 10.4 mph - N/A   Scattered Clouds
11:35 AM 76.8 °F - 70.5 °F 81% 29.87 in 10.0 mi SE 17.3 mph 21.9 mph N/A   Clear
11:55 AM 79.3 °F - 72.0 °F 78% 29.87 in 10.0 mi SE 17.3 mph 20.7 mph N/A   Scattered Clouds
12:15 PM 80.6 °F 84.6 °F 71.8 °F 74% 29.87 in 10.0 mi SE 15.0 mph 25.3 mph N/A   Scattered Clouds
12:35 PM 82.6 °F 87.3 °F 71.6 °F 69% 29.87 in 10.0 mi SE 18.4 mph 21.9 mph N/A   Mostly Cloudy
12:55 PM 82.6 °F 86.8 °F 70.7 °F 67% 29.87 in 10.0 mi SE 16.1 mph 23.0 mph N/A   Mostly Cloudy
1:15 PM 84.2 °F 89.0 °F 70.7 °F 64% 29.86 in 5.0 mi SSE 13.8 mph 21.9 mph N/A   Scattered Clouds
1:35 PM 83.8 °F 87.8 °F 69.6 °F 62% 29.86 in 10.0 mi SE 15.0 mph 23.0 mph N/A   Scattered Clouds
1:55 PM 83.7 °F 88.0 °F 70.2 °F 64% 29.86 in 10.0 mi SE 12.7 mph 18.4 mph N/A   Mostly Cloudy
2:15 PM 84.6 °F 89.4 °F 70.7 °F 63% 29.85 in 10.0 mi ESE 12.7 mph - N/A   Overcast
2:35 PM 86.0 °F 90.7 °F 70.3 °F 59% 29.84 in 10.0 mi SE 11.5 mph - N/A   Mostly Cloudy
2:55 PM 84.4 °F 88.5 °F 69.8 °F 61% 29.82 in 10.0 mi SE 11.5 mph - N/A   Scattered Clouds
3:15 PM 85.5 °F 90.1 °F 70.0 °F 60% 29.81 in 10.0 mi SE 12.7 mph - N/A   Clear
3:35 PM 84.7 °F 89.1 °F 69.8 °F 61% 29.79 in 10.0 mi ESE 9.2 mph - N/A   Scattered Clouds
3:55 PM 85.5 °F 90.1 °F 70.2 °F 60% 29.78 in 10.0 mi ESE 11.5 mph 17.3 mph N/A   Scattered Clouds
4:15 PM 86.0 °F 90.7 °F 70.3 °F 59% 29.77 in 10.0 mi East 12.7 mph 16.1 mph N/A   Clear
4:35 PM 85.5 °F 90.1 °F 70.0 °F 60% 29.77 in 10.0 mi ESE 8.1 mph - N/A   Clear
4:55 PM 84.4 °F 89.0 °F 70.7 °F 63% 29.77 in 10.0 mi East 10.4 mph 16.1 mph N/A   Clear
5:15 PM 84.4 °F 89.0 °F 70.7 °F 63% 29.78 in 10.0 mi East 11.5 mph - N/A   Scattered Clouds
5:35 PM 83.8 °F 88.3 °F 70.7 °F 64% 29.76 in 10.0 mi ESE 10.4 mph - N/A   Clear
5:55 PM 83.7 °F 88.6 °F 71.1 °F 66% 29.76 in 10.0 mi ESE 11.5 mph - N/A   Scattered Clouds
6:15 PM 83.8 °F 88.6 °F 70.9 °F 65% 29.75 in 10.0 mi ESE 11.5 mph - N/A   Clear
6:35 PM 82.6 °F 87.3 °F 71.6 °F 69% 29.74 in 10.0 mi ESE 10.4 mph 17.3 mph N/A   Clear
6:55 PM 82.0 °F 86.3 °F 71.1 °F 69% 29.73 in 10.0 mi ESE 11.5 mph 18.4 mph N/A   Clear
7:15 PM 81.7 °F 85.8 °F 70.9 °F 70% 29.72 in 10.0 mi SE 15.0 mph 20.7 mph N/A   Clear
7:35 PM 80.6 °F 84.2 °F 70.9 °F 72% 29.73 in 10.0 mi SE 10.4 mph 18.4 mph N/A   Clear
7:55 PM 79.9 °F - 70.9 °F 74% 29.74 in 10.0 mi SE 8.1 mph - N/A   Clear
8:15 PM 79.0 °F - 70.7 °F 76% 29.75 in 10.0 mi SE 6.9 mph - N/A   Clear
8:35 PM 77.9 °F - 71.1 °F 79% 29.75 in 10.0 mi ESE 5.8 mph - N/A   Clear
8:55 PM 77.7 °F - 71.1 °F 80% 29.76 in 10.0 mi East 3.5 mph - N/A   Mostly Cloudy
9:15 PM 77.2 °F - 71.6 °F 83% 29.77 in 10.0 mi ESE 4.6 mph - N/A   Overcast
9:35 PM 77.0 °F - 71.6 °F 83% 29.78 in 10.0 mi ESE 4.6 mph - N/A   Overcast
9:55 PM 76.5 °F - 71.6 °F 85% 29.79 in 10.0 mi ESE 5.8 mph - N/A   Mostly Cloudy
10:15 PM 76.3 °F - 71.6 °F 85% 29.79 in 10.0 mi SE 3.5 mph - N/A   Mostly Cloudy
10:35 PM 76.3 °F - 71.6 °F 85% 29.80 in 10.0 mi ESE 3.5 mph - N/A   Mostly Cloudy
10:55 PM 76.1 °F - 71.6 °F 86% 29.80 in 10.0 mi East 4.6 mph - N/A   Mostly Cloudy
11:15 PM 75.6 °F - 71.6 °F 87% 29.80 in 10.0 mi East 5.8 mph - N/A   Scattered Clouds
11:35 PM 75.4 °F - 71.6 °F 88% 29.82 in 7.0 mi ENE 5.8 mph - N/A   Clear
11:55 PM 75.4 °F - 71.6 °F 88% 29.83 in 7.0 mi ENE 5.8 mph - N/A   Scattered Clouds